CAPE
0 0 0 0 0 0 0 3 6 3 2 5 15 23 38 46 53 8 0 0 27 21 0 0 0 0 7 8 18 0 0 1 0 0 0 20 100 14 0 0 6 0 2 9 1 0 0 0 0 0 0 0 0 0
0 0 0 0 0 0 0 1 3 3 4 6 12 20 28 33 57 11 1 0 0 15 0 0 0 0 0 0 2 0 0 0 0 17 12 32 14 7 11 8 12 17 14 17 24 5 0 0 0 0 0 0 0 0
0 0 0 0 0 0 0 0 1 2 4 10 12 13 18 19 24 16 3 0 4 13 0 0 0 0 0 0 0 1 0 0 2 0 51 47 5 6 0 6 8 5 5 19 2 0 0 0 0 0 0 0 0 0
0 0 0 0 0 0 0 0 0 0 2 7 15 7 11 2 10 9 1 0 2 1 6 0 0 0 0 0 0 0 0 0 0 0 33 20 54 6 6 15 2 0 0 4 4 0 0 0 0 0 0 0 0 0
0 0 0 0 0 0 0 0 0 0 0 3 8 1 2 0 2 0 0 0 0 0 0 0 0 0 0 0 0 0 0 0 0 12 0 2 3 16 16 0 0 6 2 1 0 0 0 0 0 0 0 0 0 0
0 0 0 0 0 0 0 0 0 0 0 1 0 3 2 0 6 0 0 0 1 1 2 0 0 0 0 3 0 0 0 0 2 12 0 0 0 0 4 0 0 2 1 0 0 0 1 0 0 0 0 0 0 0
0 0 0 0 0 0 0 0 0 0 0 0 0 0 1 1 0 0 0 0 1 0 1 2 0 0 0 0 0 0 0 0 2 17 2 0 0 0 0 0 0 0 0 0 0 6 2 0 0 0 0 0 0 0
1 0 0 0 0 0 0 0 0 0 0 0 0 0 0 1 0 0 0 0 0 0 0 8 0 0 0 3 4 0 0 0 0 3 0 0 0 0 0 0 0 1 0 0 0 0 3 4 0 0 0 0 0 0
2 0 0 0 0 0 0 0 0 0 0 0 0 1 0 0 0 0 0 0 0 0 0 5 6 0 0 12 0 0 0 4 0 0 1 0 0 0 0 3 6 0 3 4 3 0 0 1 2 0 0 0 0 0
5 2 2 0 0 0 0 0 0 0 0 0 0 0 0 0 0 0 0 0 0 0 0 4 0 1 2 21 3 0 0 0 0 9 1 6 2 6 11 7 9 12 4 0 2 1 0 0 0 0 0 0 0 0
8 5 2 0 0 0 0 0 0 0 0 0 0 0 0 0 0 0 0 0 0 0 0 0 0 0 0 7 3 0 0 0 0 1 12 3 3 3 5 8 3 0 0 0 0 0 0 0 1 3 2 0 0 0
8 8 6 1 0 0 0 0 0 0 0 0 0 0 0 0 0 0 0 0 0 0 0 0 0 0 0 0 0 0 0 0 0 0 9 48 5 8 10 15 2 0 0 0 1 0 0 0 0 0 0 0 0 0
7 10 6 2 0 0 0 0 0 0 0 1 5 1 0 0 0 0 0 0 0 0 0 0 0 0 0 0 0 0 0 0 0 0 0 11 0 0 0 0 0 0 19 31 22 14 3 0 0 0 0 0 0 0
7 7 4 0 0 0 0 0 0 0 0 0 0 0 0 0 0 0 0 0 0 0 0 0 0 0 0 0 0 0 0 0 0 0 0 0 0 0 0 0 0 0 6 16 32 27 28 13 1 0 0 0 0 0
9 3 2 0 0 0 0 0 0 0 0 0 0 0 0 0 0 0 0 0 0 0 0 0 0 0 0 0 0 0 0 0 0 0 0 0 0 0 0 0 0 0 1 14 20 24 14 14 7 4 0 0 0 0
6 1 0 0 0 0 0 0 0 0 0 0 0 0 0 0 0 0 0 0 0 0 0 0 0 0 0 0 0 0 0 0 0 0 0 0 0 0 0 0 0 0 1 7 1 17 15 9 9 7 9 3 0 0
4 0 0 0 0 0 0 0 0 0 0 0 0 0 0 0 0 0 0 0 0 0 0 0 3 0 0 0 0 0 0 0 0 0 0 0 0 0 0 0 0 0 0 0 0 14 2 1 3 5 5 0 0 0
4 0 0 0 2 0 0 0 0 0 0 0 0 0 0 0 0 0 0 0 0 0 0 8 0 0 0 0 0 0 0 0 0 0 0 0 0 0 0 0 0 0 0 0 0 0 4 3 3 6 11 2 8 0
0 0 2 4 3 2 0 0 0 0 0 0 0 0 0 0 0 0 0 0 0 0 0 0 0 0 0 0 0 0 0 0 0 0 0 0 0 0 0 0 0 0 0 0 0 0 4 8 10 15 3 3 2 7
12 7 1 0 1 0 0 0 0 0 0 0 0 0 0 0 0 0 0 0 0 0 0 0 0 0 0 0 0 0 0 0 0 0 0 0 0 0 0 0 0 0 0 0 0 0 2 8 17 22 1 1 3 13
0 0 0 0 0 0 0 0 0 0 0 0 0 0 0 0 0 0 0 0 0 0 0 0 0 0 0 0 0 0 0 0 0 0 0 0 0 0 0 0 0 0 0 0 0 0 0 0 6 3 0 11 11 5
0 0 0 0 2 2 0 0 0 0 0 0 0 0 0 0 0 0 0 0 0 0 0 0 0 0 0 0 0 0 0 0 0 0 0 0 0 0 0 0 0 0 0 0 0 0 0 0 1 4 3 3 3 4
0 0 3 1 5 6 0 0 3 0 0 0 0 0 0 0 0 0 0 0 0 0 0 0 0 0 0 0 0 0 0 0 0 0 0 0 0 0 0 0 0 0 0 0 0 0 0 0 1 1 3 3 0 0
2 7 9 0 2 0 0 0 0 0 0 0 0 0 0 0 0 0 0 0 0 0 0 0 0 0 0 0 0 0 0 0 0 0 0 0 0 0 0 0 0 0 0 0 0 0 0 0 0 3 2 3 4 1
5 0 3 0 0 1 0 0 0 0 0 0 0 0 0 0 0 0 0 0 0 0 0 0 0 0 0 0 0 0 0 0 0 0 0 0 0 0 0 0 0 0 0 0 0 0 0 0 0 2 5 2 2 2
3 0 0 0 0 0 0 1 0 0 0 0 0 0 0 0 0 0 0 0 0 0 0 0 0 0 0 0 0 0 0 0 0 0 0 0 0 0 0 0 0 0 0 0 0 0 0 0 0 0 2 1 1 2
0 0 0 0 0 0 0 0 0 0 0 0 0 0 0 0 0 0 0 0 0 0 0 0 0 0 0 0 0 0 0 0 0 0 0 0 0 0 0 0 0 0 0 0 0 0 0 0 0 0 2 2 3 4
0 0 0 0 0 0 0 0 0 0 0 0 0 0 0 0 0 0 0 0 0 0 0 0 0 0 0 0 0 0 0 0 0 0 0 0 0 0 0 0 0 0 0 0 0 0 0 0 0 1 1 2 2 1
8 0 0 0 0 0 0 0 0 0 0 0 0 0 0 0 0 0 0 0 0 0 0 0 0 0 0 0 0 0 0 0 0 0 0 0 0 0 0 0 0 0 0 0 0 0 0 0 0 0 0 1 0 0
0 0 0 0 0 0 0 0 0 0 0 0 0 0 0 0 0 0 0 0 0 0 0 0 0 0 0 0 0 0 0 0 0 0 0 0 0 0 0 0 0 0 0 0 0 0 0 0 0 0 0 0 0 0
0 0 0 0 0 0 0 0 0 0 0 0 0 0 0 0 0 0 0 0 0 0 0 0 0 0 0 0 0 0 0 0 0 0 0 0 0 0 0 0 0 0 0 0 0 0 0 0 0 0 0 0 0 0
0 0 0 0 0 0 0 0 0 0 0 0 0 0 0 2 14 0 0 0 0 0 0 0 0 0 0 0 0 0 0 0 0 0 0 0 0 0 0 0 0 0 0 0 0 0 0 0 0 0 1 0 0 0
0 0 0 0 0 0 0 0 0 0 0 0 0 0 0 0 0 0 0 0 1 0 0 0 0 0 0 0 0 0 0 0 0 0 0 0 0 0 0 0 0 0 0 0 0 0 0 0 1 0 1 0 0 0
CIN
-0 -0 -0 -0 -0 -0 -0 -0 -0 -0 -0 -0 -0 -0 -0 -0 -1 -2 -1 -0 -0 -0 -2 -0 -0 -0 -0 -0 -0 -0 -0 -7 -0 -0 -0 -7 -0 -0 -0 -0 -0 -0 -0 -0 -0 -0 -0 -0 -0 -0 -0 -0 -0 -0
-0 -0 -0 -0 -0 -0 -0 -0 -0 -0 -0 -0 -0 -0 -0 -0 -1 -15 -9 -0 -8 -0 -0 -0 -0 -0 -0 -0 -0 -0 -0 -3 -2 -3 -1 -0 -0 -0 -0 -0 -0 -0 -0 -0 -0 -0 -0 -0 -0 -0 -0 -0 -0 -0
-0 -0 -0 -0 -0 -0 -0 -0 -0 -0 -0 -0 -0 -0 -0 -1 -4 -5 -17 -0 -6 -0 -0 -0 -0 -0 -0 -0 -0 -1 -0 -0 -26 -10 -1 -0 -0 -0 -0 -0 -0 -0 -0 -0 -0 -0 -0 -0 -0 -0 -0 -0 -0 -0
-0 -0 -0 -0 -0 -0 -0 -0 -0 -0 -0 -0 -0 -0 -1 -0 -0 -2 -2 -0 -2 -0 -0 -0 -0 -0 -0 -0 -0 -0 -0 -0 -0 -0 -1 -3 -0 -1 -0 -1 -0 -0 -0 -0 -0 -0 -0 -0 -0 -0 -0 -0 -0 -0
-0 -0 -0 -0 -0 -0 -0 -0 -0 -0 -0 -0 -0 -0 -0 -0 -0 -0 -0 -0 -0 -0 -0 -0 -0 -0 -0 -0 -0 -0 -0 -0 -0 -4 -3 -1 -18 -0 -8 -1 -0 -28 -13 -0 -0 -1 -0 -0 -0 -0 -0 -0 -0 -0
-0 -0 -0 -0 -0 -0 -0 -0 -0 -0 -0 -0 -0 -0 -0 -0 -1 -0 -0 -0 -0 -0 -1 -0 -0 -0 -0 -40 -0 -0 -0 -0 -2 -9 -7 -0 -0 -0 -0 -0 -0 -0 -7 -0 -0 -0 -10 -0 -0 -0 -0 -0 -0 -0
-0 -0 -0 -0 -0 -0 -0 -0 -0 -0 -0 -0 -0 -0 -0 -0 -0 -0 -0 -0 -0 -0 -0 -0 -0 -0 -0 -0 -0 -0 -0 -0 -10 -10 -4 -0 -0 -24 -0 -0 -0 -0 -0 -0 -0 -13 -6 -0 -0 -0 -0 -0 -0 -0
-0 -0 -0 -0 -0 -0 -0 -0 -0 -0 -0 -0 -0 -0 -0 -0 -0 -0 -0 -0 -0 -0 -0 -0 -0 -0 -0 -1 -1 -0 -0 -0 -0 -6 -0 -0 -0 -0 -0 -2 -0 -0 -0 -0 -0 -0 -38 -9 -0 -0 -0 -0 -0 -0
-0 -0 -0 -0 -0 -0 -0 -0 -0 -0 -0 -0 -0 -0 -0 -0 -0 -0 -0 -0 -0 -0 -0 -0 -0 -0 -0 -6 -2 -6 -0 -2 -0 -0 -0 -0 -0 -0 -0 -0 -0 -0 -0 -0 -0 -0 -6 -3 -16 -0 -0 -0 -0 -0
-0 -0 -0 -0 -0 -0 -0 -0 -0 -0 -0 -0 -0 -0 -0 -0 -0 -0 -0 -0 -0 -0 -0 -0 -0 -0 -3 -3 -14 -0 -4 -0 -0 -0 -0 -0 -0 -0 -0 -0 -0 -0 -0 -0 -0 -0 -0 -0 -0 -0 -0 -0 -0 -0
-0 -0 -0 -0 -0 -0 -0 -0 -0 -0 -0 -0 -0 -0 -0 -0 -0 -0 -0 -0 -0 -0 -0 -25 -0 -0 -0 -2 -0 -0 -1 -4 -0 -0 -0 -0 -0 -0 -0 -0 -2 -3 -0 -0 -0 -0 -0 -0 -0 -0 -0 -0 -0 -0
-0 -0 -0 -0 -0 -0 -0 -0 -0 -0 -0 -0 -0 -0 -0 -0 -0 -0 -0 -0 -0 -0 -0 -0 -0 -0 -0 -0 -0 -0 -0 -0 -0 -0 -0 -2 -6 -42 -46 -31 -30 -0 -0 -0 -9 -0 -0 -0 -0 -0 -0 -0 -0 -0
-0 -0 -0 -0 -0 -0 -0 -0 -0 -0 -0 -0 -0 -0 -0 -0 -0 -0 -0 -0 -0 -0 -0 -0 -0 -0 -0 -0 -0 -0 -0 -0 -0 -0 -0 -14 -29 -0 -0 -0 -0 -0 -9 -3 -0 -2 -3 -0 -5 -0 -0 -0 -0 -0
-0 -0 -0 -0 -0 -0 -0 -0 -0 -0 -0 -0 -0 -0 -0 -0 -0 -0 -0 -0 -0 -0 -0 -0 -0 -0 -0 -0 -0 -0 -0 -0 -0 -0 -0 -0 -0 -0 -0 -0 -0 -0 -25 -15 -2 -0 -0 -0 -3 -0 -0 -0 -0 -0
-0 -0 -0 -0 -0 -0 -0 -0 -0 -0 -0 -0 -0 -0 -0 -0 -0 -0 -0 -0 -0 -0 -0 -0 -0 -0 -0 -0 -0 -0 -0 -0 -0 -0 -0 -0 -0 -0 -0 -0 -0 -0 -19 -31 -19 -3 -0 -1 -0 -0 -0 -0 -0 -0
-0 -0 -0 -0 -0 -0 -0 -0 -0 -0 -0 -0 -0 -0 -0 -0 -0 -0 -0 -0 -0 -0 -0 -0 -0 -0 -0 -0 -0 -0 -0 -0 -0 -0 -0 -0 -0 -0 -0 -0 -0 -0 -48 -46 -10 -17 -7 -0 -0 -1 -0 -1 -0 -0
-0 -0 -0 -0 -0 -0 -0 -0 -0 -0 -0 -0 -0 -0 -0 -0 -0 -0 -0 -0 -0 -0 -0 -0 -15 -0 -0 -0 -0 -0 -0 -0 -0 -0 -0 -0 -0 -0 -0 -0 -0 -0 -0 -0 -3 -25 -2 -2 -1 -0 -0 -0 -0 -0
-0 -0 -0 -0 -0 -0 -0 -0 -0 -0 -0 -0 -0 -0 -0 -0 -0 -0 -0 -0 -0 -0 -0 -21 -0 -0 -0 -0 -0 -0 -0 -0 -0 -0 -0 -0 -0 -0 -0 -0 -0 -0 -0 -0 -0 -0 -1 -0 -0 -0 -0 -0 -0 -0
-0 -0 -0 -0 -0 -0 -0 -0 -0 -0 -0 -0 -0 -0 -0 -0 -0 -0 -0 -0 -0 -0 -0 -0 -21 -0 -0 -0 -0 -0 -0 -0 -0 -0 -0 -0 -0 -0 -0 -0 -0 -0 -0 -0 -0 -0 -2 -4 -0 -0 -0 -0 -0 -0
-0 -0 -0 -0 -0 -0 -0 -0 -0 -0 -0 -0 -0 -0 -0 -0 -0 -0 -0 -0 -0 -0 -0 -0 -0 -0 -0 -0 -0 -0 -0 -0 -0 -0 -0 -0 -0 -0 -0 -0 -0 -0 -0 -0 -0 -0 -2 -2 -1 -1 -0 -0 -0 -0
-0 -0 -0 -0 -0 -0 -0 -0 -0 -0 -0 -0 -0 -0 -0 -0 -0 -0 -0 -0 -0 -0 -0 -0 -0 -0 -0 -0 -0 -0 -0 -0 -0 -0 -0 -0 -0 -0 -0 -0 -0 -0 -0 -0 -0 -0 -0 -0 -3 -0 -0 -0 -0 -0
-0 -0 -0 -0 -0 -1 -0 -0 -0 -0 -0 -0 -0 -0 -0 -0 -0 -0 -0 -0 -0 -0 -0 -0 -0 -0 -0 -0 -0 -0 -0 -0 -0 -0 -0 -0 -0 -0 -0 -0 -0 -0 -0 -0 -0 -0 -0 -0 -0 -0 -0 -0 -0 -0
-0 -0 -0 -0 -0 -0 -0 -0 -3 -2 -0 -0 -0 -0 -0 -0 -0 -0 -0 -0 -0 -0 -0 -0 -0 -0 -0 -0 -0 -0 -0 -0 -0 -0 -0 -0 -0 -0 -0 -0 -0 -0 -0 -0 -0 -0 -0 -0 -0 -0 -0 -0 -0 -0
-0 -0 -0 -0 -0 -0 -0 -0 -0 -0 -0 -0 -0 -0 -0 -0 -0 -0 -0 -0 -0 -0 -0 -0 -0 -0 -0 -0 -0 -0 -0 -0 -0 -0 -0 -0 -0 -0 -0 -0 -0 -0 -0 -0 -0 -0 -0 -0 -0 -0 -0 -0 -0 -0
-0 -0 -0 -0 -0 -0 -0 -0 -0 -0 -0 -0 -0 -0 -0 -0 -0 -0 -0 -0 -0 -0 -0 -0 -0 -0 -0 -0 -0 -0 -0 -0 -0 -0 -0 -0 -0 -0 -0 -0 -0 -0 -0 -0 -0 -0 -0 -0 -0 -0 -0 -0 -0 -0
-4 -0 -0 -0 -0 -0 -0 -5 -0 -0 -0 -0 -0 -0 -0 -0 -0 -0 -0 -0 -0 -0 -0 -0 -0 -0 -0 -0 -0 -0 -0 -0 -0 -0 -0 -0 -0 -0 -0 -0 -0 -0 -0 -0 -0 -0 -0 -0 -0 -0 -0 -0 -0 -0
-0 -0 -0 -0 -0 -0 -0 -0 -0 -0 -0 -0 -0 -0 -0 -0 -0 -0 -0 -0 -0 -0 -0 -0 -0 -0 -0 -0 -0 -0 -0 -0 -0 -0 -0 -0 -0 -0 -0 -0 -0 -0 -0 -0 -0 -0 -0 -0 -0 -0 -0 -0 -0 -0
-0 -0 -0 -0 -0 -0 -0 -0 -0 -0 -0 -0 -0 -0 -0 -0 -0 -0 -0 -0 -0 -0 -0 -0 -0 -0 -0 -0 -0 -0 -0 -0 -0 -0 -0 -0 -0 -0 -0 -0 -0 -0 -0 -0 -0 -0 -0 -0 -0 -0 -0 -0 -0 -0
-0 -0 -0 -0 -0 -0 -0 -0 -0 -0 -0 -0 -0 -0 -0 -0 -0 -0 -0 -0 -0 -0 -0 -0 -0 -0 -0 -0 -0 -0 -0 -0 -0 -0 -0 -0 -0 -0 -0 -0 -0 -0 -0 -0 -0 -0 -0 -0 -0 -0 -0 -0 -0 -0
-0 -0 -0 -0 -0 -0 -0 -0 -0 -0 -0 -0 -0 -0 -0 -0 -0 -0 -0 -0 -0 -0 -0 -0 -0 -0 -0 -0 -0 -0 -0 -0 -0 -0 -0 -0 -0 -0 -0 -0 -0 -0 -0 -0 -0 -0 -0 -0 -0 -0 -0 -0 -0 -0
-0 -0 -2 -0 -0 -0 -0 -0 -0 -0 -0 -0 -0 -0 -0 -0 -0 -0 -0 -0 -0 -0 -0 -0 -0 -0 -0 -0 -0 -0 -0 -0 -0 -0 -0 -0 -0 -0 -0 -0 -0 -0 -0 -0 -0 -0 -0 -0 -0 -0 -0 -0 -0 -0
-0 -0 -0 -0 -0 -0 -0 -0 -0 -0 -0 -0 -0 -0 -0 -0 -0 -0 -0 -0 -0 -0 -0 -0 -0 -0 -0 -0 -0 -0 -0 -0 -0 -0 -0 -0 -0 -0 -0 -0 -0 -0 -0 -0 -0 -0 -0 -0 -0 -0 -0 -0 -0 -0
-0 -0 -0 -0 -4 -0 -0 -0 -0 -0 -0 -0 -0 -0 -0 -0 -0 -0 -0 -0 -0 -0 -0 -0 -0 -0 -0 -0 -0 -0 -0 -0 -0 -0 -0 -0 -0 -0 -0 -0 -0 -0 -0 -0 -0 -0 -0 -0 -0 -0 -0 -0 -0 -0
Wind_Speed
22 22 22 24 25 25 25 25 25 24 24 24 21 20 17 16 11 1 3 5 2 3 9 7 4 6 6 4 3 4 4 3 3 6 4 4 3 1 1 1 1 2 1 0 2 1 2 17 6 9 5 6 8 11
21 22 22 23 24 25 26 26 26 25 23 23 21 19 17 16 11 2 2 2 3 4 9 6 12 17 13 18 4 2 3 3 3 1 2 4 2 4 3 1 4 2 2 2 5 3 8 10 3 1 4 7 8 9
23 23 23 23 24 25 26 26 26 26 25 22 21 18 17 13 10 4 3 0 1 4 6 4 5 2 2 9 10 4 3 3 1 3 2 2 2 1 2 1 2 1 1 1 4 5 12 15 5 4 9 9 12 12
21 22 23 24 24 25 26 26 26 26 25 23 20 17 14 11 8 5 2 1 1 3 4 8 3 7 4 5 9 11 2 2 2 1 1 2 3 1 2 1 2 1 3 3 2 6 13 6 8 13 16 13 12 14
21 22 22 23 24 25 26 27 28 27 25 24 22 19 14 10 9 3 2 4 4 0 3 7 10 4 5 1 5 7 9 4 1 2 2 2 1 3 2 1 1 4 5 1 1 2 5 12 12 17 16 13 13 13
20 21 22 22 23 25 26 27 28 28 27 24 25 22 15 9 2 1 4 2 6 4 3 5 3 6 5 1 8 6 4 4 2 2 3 2 2 3 0 1 6 12 7 2 3 4 8 19 14 15 9 15 13 11
20 21 22 22 22 24 26 26 28 28 29 27 24 23 14 10 3 3 4 2 7 3 2 5 5 4 4 4 2 2 2 1 2 2 2 1 3 1 1 2 10 11 11 10 4 5 7 11 10 18 16 15 11 11
19 21 22 22 21 23 25 27 27 28 30 29 25 16 1 10 3 3 2 9 5 0 2 3 6 5 4 4 2 2 2 1 1 2 2 1 3 2 1 4 9 12 13 13 10 10 7 12 16 15 16 10 11 11
18 20 22 22 22 22 24 26 27 28 31 30 20 7 2 2 1 3 4 9 1 2 1 2 4 4 4 3 1 2 2 2 1 1 2 3 4 2 5 9 12 12 9 13 14 13 12 11 12 13 16 15 13 11
19 20 22 22 22 21 23 25 26 27 33 20 3 2 3 2 10 4 1 1 3 1 2 4 2 4 1 2 2 3 3 3 2 2 3 1 1 2 6 9 8 9 7 9 11 10 11 14 14 16 15 15 13 13
20 19 21 22 22 21 22 23 24 24 12 6 5 3 4 11 1 3 1 2 1 3 3 4 3 3 2 1 1 1 1 2 2 1 2 1 1 4 8 9 7 9 9 11 11 13 11 11 12 15 15 15 14 13
20 20 20 23 21 20 20 22 17 4 2 5 7 7 3 3 3 2 1 3 1 4 3 2 3 3 2 1 1 1 1 2 1 3 2 2 3 8 8 9 7 5 8 11 12 14 15 13 12 11 12 13 14 13
19 19 20 23 22 21 21 17 15 16 12 2 2 3 2 2 4 3 2 4 2 3 4 3 4 0 2 3 2 3 3 1 3 4 1 3 7 8 8 6 7 7 8 9 11 11 14 16 14 12 12 12 14 14
18 18 19 23 23 23 12 16 17 9 3 2 2 6 4 3 4 5 5 5 5 4 4 1 2 1 1 4 1 2 2 3 4 5 4 4 7 10 10 8 6 9 9 11 13 12 13 15 14 13 12 12 11 13
16 18 19 22 13 13 18 21 20 2 3 4 4 5 6 5 3 3 3 3 4 3 1 2 1 2 2 3 1 2 5 2 4 5 4 5 7 7 8 8 9 10 8 9 10 12 12 13 15 14 13 11 10 10
13 16 5 6 16 21 24 17 2 3 3 3 4 2 3 1 4 2 3 4 2 2 2 3 1 3 1 3 3 3 2 5 5 5 6 4 6 6 6 5 6 7 9 9 8 11 12 13 14 15 11 9 10 10
7 5 5 11 18 24 22 3 2 5 5 5 5 4 4 2 5 4 4 4 3 3 2 2 1 6 2 2 2 5 6 6 6 5 3 5 7 7 7 6 5 6 9 8 9 8 11 13 13 13 12 9 8 10
5 5 12 13 13 11 2 2 3 3 7 5 2 4 4 4 3 4 4 3 3 3 4 5 4 3 4 4 5 6 6 5 4 5 5 6 6 7 5 5 5 5 6 7 9 9 11 13 11 11 13 13 11 9
7 8 14 15 8 4 3 4 2 4 7 3 4 2 3 4 4 4 3 3 3 2 4 2 3 4 5 5 6 5 4 4 4 3 4 6 5 6 6 5 5 5 6 5 5 5 8 11 8 9 9 10 10 11
13 14 17 16 7 3 4 5 2 4 5 4 2 2 4 4 3 3 4 4 5 4 3 4 6 5 6 5 5 5 4 3 2 3 5 5 2 5 5 4 3 6 5 4 4 5 6 6 6 8 8 10 12 9
3 3 6 3 2 4 4 3 4 5 4 3 2 2 4 1 3 3 4 4 3 4 4 5 5 6 6 4 3 3 4 4 5 4 4 4 3 3 4 4 4 3 3 3 4 7 6 8 7 7 7 8 9 11
2 3 2 2 4 4 5 5 5 4 3 4 3 3 3 3 4 5 3 3 4 5 5 5 5 4 3 5 6 6 5 4 3 3 5 3 3 3 4 4 4 4 4 4 4 5 6 6 9 9 9 11 13 12
1 3 3 3 6 6 7 4 4 4 4 4 3 3 3 3 4 1 1 4 5 4 4 4 4 5 5 2 2 3 5 4 2 3 3 3 3 2 3 4 3 3 5 5 4 4 6 9 11 11 10 11 12 15
4 3 4 5 8 5 3 4 2 2 2 1 2 4 3 4 2 1 5 4 4 2 3 4 3 2 2 3 3 2 3 3 2 3 1 2 2 2 2 4 4 3 3 4 3 4 5 7 9 9 10 10 10 11
5 7 5 7 4 4 5 3 4 1 5 5 2 4 4 2 1 3 5 4 3 3 3 2 4 4 4 3 1 3 3 4 4 3 1 1 1 2 2 2 3 3 3 4 4 4 5 5 7 8 9 10 10 10
8 7 11 7 3 5 5 3 5 6 3 3 6 4 2 1 2 6 4 3 3 3 4 5 6 4 2 3 4 3 4 4 4 3 2 2 3 2 2 2 2 4 3 3 3 3 4 6 7 9 9 11 10 9
7 7 4 4 3 2 3 2 2 1 3 5 3 1 1 3 5 5 4 3 4 3 3 4 5 5 5 5 3 3 3 4 2 3 4 3 2 1 1 2 4 3 4 4 4 4 4 7 7 7 7 8 10 10
7 3 7 5 4 3 3 2 4 5 4 3 2 4 5 6 4 3 1 2 4 5 2 2 1 2 2 3 2 4 4 4 6 5 4 3 3 4 3 3 3 7 4 6 4 5 3 6 7 6 7 7 7 8
6 5 5 5 4 5 7 8 6 5 4 4 5 4 4 3 1 2 3 2 3 3 4 3 2 3 4 4 4 4 3 4 6 6 6 3 1 3 3 3 3 4 4 4 7 7 7 7 7 7 7 6 6 7
6 6 6 6 7 9 7 7 4 3 3 3 2 0 2 3 3 2 3 5 5 4 7 3 4 4 4 4 2 4 4 3 1 3 4 3 3 2 2 1 2 2 4 4 3 3 5 5 5 5 6 5 5 5
4 6 4 5 10 10 7 5 4 2 2 4 4 4 5 3 2 1 2 3 4 3 2 1 1 1 6 5 5 3 2 3 4 5 3 3 2 1 2 3 1 2 2 3 4 4 4 5 6 6 6 7 8 6
5 9 6 6 4 4 5 4 4 5 4 4 4 4 3 3 4 2 6 5 3 2 2 2 4 3 2 5 5 5 5 4 4 2 3 3 2 1 3 3 3 3 4 5 5 5 6 5 5 6 7 9 10 10
4 4 4 2 2 3 4 4 3 3 2 3 4 4 4 4 3 2 2 6 4 3 4 4 5 5 7 6 6 6 6 7 8 6 6 5 5 6 4 4 4 5 7 7 6 5 6 8 7 8 9 10 9 8
Wind_Direction
322 326 329 330 330 331 331 331 330 328 329 331 329 327 323 316 306 140 244 194 234 260 279 228 233 218 265 259 290 317 343 335 350 17 336 328 291 80 320 54 9 128 272 3 181 239 122 356 6 61 271 284 285 317
320 322 324 326 327 328 329 330 329 327 329 330 330 324 318 311 307 154 258 197 182 246 262 232 242 247 220 242 267 262 250 252 219 315 341 295 15 352 333 183 12 78 37 338 9 11 329 339 335 293 281 270 304 307
319 321 321 323 325 326 328 328 328 328 328 328 326 321 314 312 312 211 227 234 250 271 288 336 249 289 156 215 197 214 253 215 214 201 299 290 288 239 7 23 296 166 229 204 328 333 315 304 290 352 338 318 306 311
314 317 318 320 323 324 326 327 327 327 328 327 326 320 312 308 304 295 249 165 191 262 299 284 308 306 224 172 189 213 281 60 82 285 303 304 290 98 239 323 316 209 195 202 250 306 323 63 339 333 326 322 317 320
310 313 315 318 321 323 325 326 325 325 326 326 326 322 313 301 285 271 217 231 204 168 284 288 317 314 332 118 229 212 232 237 236 272 244 249 264 322 270 154 250 196 204 221 134 181 271 283 318 319 324 313 320 321
305 309 312 315 319 321 324 325 324 323 322 325 324 318 307 277 239 55 338 232 199 198 281 305 267 290 308 201 300 244 200 202 207 202 256 282 245 178 278 279 24 8 348 179 238 226 224 282 300 303 309 314 310 315
303 306 308 312 318 320 321 324 324 322 321 323 324 318 293 221 137 162 193 262 161 164 278 299 301 267 309 288 345 348 63 148 251 201 232 250 282 140 329 348 336 337 337 332 294 310 295 295 310 312 315 305 300 292
300 303 304 309 315 319 320 323 324 321 321 322 324 325 272 157 207 313 260 202 148 223 53 283 277 325 22 298 3 349 0 21 118 328 4 268 347 23 40 331 335 327 318 310 344 329 265 294 313 314 317 306 310 311
296 299 303 307 312 318 320 323 325 322 320 323 322 135 93 69 125 227 102 106 176 152 217 284 290 297 344 275 22 343 19 14 250 10 21 18 354 39 319 334 328 325 305 301 308 316 310 315 320 324 323 318 317 312
294 298 301 304 310 317 321 323 326 324 319 323 46 35 328 252 314 75 54 29 13 244 211 249 215 264 234 289 43 354 3 12 4 19 307 29 179 3 276 270 268 291 304 293 299 299 319 318 321 321 313 303 302 299
293 298 302 302 307 315 321 325 327 329 343 5 1 322 299 306 64 39 18 83 306 286 230 248 229 278 305 331 348 25 7 334 337 326 332 353 354 273 270 287 292 272 273 267 265 269 275 276 280 287 298 305 302 299
292 299 300 298 304 313 319 322 322 0 261 261 283 289 286 337 24 87 289 317 207 242 270 221 272 221 309 55 105 320 78 353 333 315 315 48 273 278 294 297 301 281 264 268 263 267 272 271 275 278 283 288 295 299
293 299 300 298 302 311 313 310 317 315 311 254 209 262 57 291 30 157 221 300 302 254 258 338 319 345 358 43 35 57 49 267 359 37 9 237 274 308 318 311 309 304 305 293 297 287 283 284 282 275 280 278 281 290
292 298 299 298 304 305 305 315 322 338 295 234 210 298 175 252 240 189 190 206 233 226 274 250 262 100 17 51 12 2 260 50 43 31 266 265 313 310 313 313 328 318 315 323 325 312 292 288 285 277 267 270 276 281
292 296 298 296 285 324 327 321 318 215 198 228 118 243 229 241 250 213 225 295 243 229 148 19 17 93 9 78 35 51 17 345 188 218 238 256 291 292 300 320 327 319 314 307 306 327 326 314 311 292 269 261 260 265
299 307 270 241 334 327 323 323 316 162 237 227 231 261 227 337 277 213 195 255 226 147 80 59 93 48 327 136 61 198 114 224 250 227 236 280 289 285 272 282 283 285 293 297 313 318 330 329 321 313 290 272 265 261
285 242 288 326 331 316 311 253 248 224 221 224 252 212 176 229 228 239 190 235 152 97 230 115 61 221 102 45 286 189 204 220 225 260 253 243 259 274 274 282 287 302 312 320 309 315 326 323 330 328 340 294 258 262
236 262 290 314 329 311 272 235 247 240 244 235 208 223 191 207 211 239 238 186 149 183 140 214 128 121 197 191 261 235 230 251 247 252 262 280 282 287 271 271 316 312 306 304 310 319 323 324 327 332 330 334 316 260
250 269 286 300 303 302 308 282 195 256 240 238 250 238 200 229 225 234 227 193 198 161 125 147 155 197 227 215 225 241 241 219 240 277 273 284 296 303 319 335 347 338 322 307 304 320 331 322 313 316 332 334 336 326
268 278 275 277 273 222 267 264 225 256 267 244 254 243 214 216 220 208 225 184 160 161 168 198 211 214 198 221 201 218 218 206 169 305 293 289 292 345 346 340 317 299 305 328 300 287 338 333 341 341 339 333 332 339
293 262 300 229 175 221 270 273 260 224 276 268 286 183 252 287 239 221 230 154 136 199 227 212 219 238 207 238 214 196 224 179 195 197 243 285 312 335 320 320 335 334 345 320 327 324 338 347 337 323 343 344 334 338
238 327 311 236 227 223 248 230 226 283 274 256 302 210 237 258 243 230 169 160 212 219 199 197 220 225 200 217 213 203 212 188 221 256 261 269 314 343 326 323 342 329 327 318 326 322 328 338 342 341 345 354 355 359
115 183 224 241 229 229 251 160 213 221 233 265 357 280 268 262 235 91 235 224 239 229 200 204 218 195 204 187 177 201 189 182 231 265 248 242 241 232 291 305 321 335 336 325 326 328 346 340 353 359 354 0 360 3
134 231 227 219 199 251 278 237 220 251 264 284 230 263 253 232 354 287 245 236 241 197 185 216 165 126 72 119 189 231 222 176 205 272 297 211 296 309 245 279 309 314 270 282 322 344 9 5 353 2 5 6 3 8
210 222 216 225 219 223 227 242 225 161 239 204 211 268 271 47 246 260 239 257 233 238 231 202 198 186 171 170 202 235 206 169 176 157 348 214 312 332 330 317 296 281 325 355 4 9 8 18 11 13 11 10 11 4
216 229 190 197 218 206 218 229 213 217 195 214 231 249 33 99 289 256 249 255 248 231 201 198 191 166 202 173 175 204 209 171 131 119 239 203 183 175 243 278 303 305 1 354 342 26 32 40 28 22 19 12 12 20
222 239 229 233 187 224 271 249 267 236 220 218 240 290 135 212 245 254 293 334 293 278 239 189 161 167 174 189 220 210 148 155 155 162 129 98 50 22 261 276 299 305 335 13 35 42 56 53 43 31 29 19 18 26
219 195 200 216 201 201 237 207 216 213 228 221 140 197 210 207 232 253 257 326 325 324 38 44 43 168 171 212 138 113 100 96 84 79 71 55 35 23 49 75 62 30 30 31 51 51 41 54 59 55 53 40 25 24
208 192 170 214 213 220 212 201 216 219 197 157 185 221 243 241 222 346 311 299 358 350 288 127 55 72 67 66 78 69 106 128 137 164 194 218 318 323 358 95 88 78 49 43 55 63 50 58 63 68 62 54 42 37
229 173 191 200 202 221 217 190 219 217 207 211 190 303 289 280 258 193 269 289 286 304 281 280 139 145 139 132 96 76 37 37 38 153 159 173 202 263 323 108 125 148 144 133 95 72 50 67 68 54 66 52 39 35
155 165 212 212 239 243 234 221 236 198 212 221 208 203 241 232 301 20 41 335 302 255 192 104 119 147 130 117 110 100 73 10 54 67 91 115 119 19 337 312 149 124 97 90 86 76 67 68 75 73 66 68 63 57
184 194 197 215 254 249 202 194 208 215 213 193 227 198 181 145 219 29 357 341 348 347 285 203 146 142 129 112 118 111 102 117 89 63 83 103 110 66 80 75 81 82 76 71 71 79 79 75 77 83 82 77 69 75
207 184 201 240 304 258 223 149 207 259 184 191 222 189 171 154 116 22 11 13 13 26 30 27 33 55 66 79 100 103 95 89 79 62 52 49 51 60 62 63 72 85 89 83 76 80 88 88 85 83 83 87 81 74